Preview of NWS' New Version of Forecast
This preview is not operational and should not be used for support decisions.

Regional Weather Roundup (RWR)

Issued by National Weather Service (NWS)

                            
000
ASUS44 KMEG 221800
RWRTN 
TENNESSEE HOURLY STATE WEATHER ROUNDUP
NATIONAL WEATHER SERVICE MEMPHIS TN
100 PM CDT MON JUL 22 2019

TNZ002-004-019-021-049-052-054-088>092-221900-
WEST TENNESSEE
  
CITY           SKY/WX    TMP DP  RH WIND       PRES   REMARKS
MEMPHIS INTL   PTSUNNY   85  77  77 W8G17     29.93F HX  95           
NWS MEMPHIS      N/A     84 N/A N/A MISG        N/A                   
JACKSON        PTSUNNY   86  77  74 W10G20    29.93S HX  97           
DYERSBURG      TSTM      74  73  97 CALM      29.95R                  
$$

TNZ008-025-027-028-033-062-065-066-221900-
NORTH MIDDLE TENNESSEE
  
CITY           SKY/WX    TMP DP  RH WIND       PRES   REMARKS
NASHVILLE      PTSUNNY   89  73  59 VRB6      29.93F HX  97           
CLARKSVILLE    HVY RAIN  75  72  90 NW14      29.94R VSB 1            
SMYRNA         FAIR      86  76  71 SW8       29.93F HX  96           
CROSSVILLE     PTSUNNY   78  70  76 W8        30.01F                  
$$

TNZ061-075-076-078-094-096-097-221900-
SOUTH MIDDLE TENNESSEE
  
CITY           SKY/WX    TMP DP  RH WIND       PRES   REMARKS
$$

TNZ017-018-042-046-047-221900-
NORTHEAST TENNESSEE
  
CITY           SKY/WX    TMP DP  RH WIND       PRES   REMARKS
TRI CITIES     LGT RAIN  75  72  90 W5        30.01S                  
$$

TNZ012-013-036-069-073-074-221900-
CENTRAL EAST TENNESSEE
  
CITY           SKY/WX    TMP DP  RH WIND       PRES   REMARKS
KNOXVILLE      CLOUDY    79  69  71 S16       29.96F                  
OAK RIDGE      PTSUNNY   87  71  58 VRB5      29.97F HX  93           
$$

TNZ083-085-099-221900-
SOUTHEAST TENNESSEE
  
CITY           SKY/WX    TMP DP  RH WIND       PRES   REMARKS
CHATTANOOGA    PTSUNNY   87  72  60 SW12G18   29.97F HX  93           
$$

SKY/WX REPORTED AS FAIR MEANS FEW OR NO CLOUDS BELOW
12 THOUSAND FEET.